INTELSAT 30 (IS-30) (40271 NORAD) Tracking and Keplerian Element Data

This shows tracking and keplerian element data for the satellite.

Feedback or suggestion? Click here.




ElementValue
Catalog40271
NameINTELSAT 30 (IS-30)
Epoch Orbit2537
Epoch Day259.48055887
Epoch Year2021
RAAN168.3537
Inclination0.0219
Eccentricity0.0002183
Argument of Perigee269.3387
Mean Anonmoly355.889
Mean Motion1.00270721
Decay Rate-1.73E-06
L11 40271U 14062A 21259.48055887 -.00000173 00000-0 00000+0 0 9992
L22 40271 0.0219 168.3537 0002183 269.3387 355.8890 1.00270721 25378

Live tracking and technical data element details for INTELSAT 30 (IS-30) (NORAD 40271). INTELSAT 30 (IS-30) can be tracked NOW for your location showing map with azimuth and elevation plus other details from your city location.

Track the satellite on the map from your city or location and see movement details for azimuth, elevation, latitude, longitude, range, height, and movement on the map or in text.







IsCatalogInMostPopularTable: catalog: 40271, numindb: 628
Update: records affected: 1



GetName: 40271 INTELSAT 30 (IS-30)

Hit Count: updated at: Sat, 18 Sep 2021 09:59:08 GMT